This is the latest recevied weather packets stored in our database for station/object EA6AMI-5. If no packets are shown the sender has not sent any weather packets the latest 10 day(s).
| Time | Temp. | Humidity | Pressure | Rain* | Wind** | Luminosity | Snow |
|---|---|---|---|---|---|---|---|
| 1777327743 | 14.44° C | 72% | 1017.1 hPa | 0 mm | - | 0 W/m² | - |
| 1777327204 | 14.44° C | 73% | 1017.4 hPa | 0 mm | - | 0 W/m² | - |
| 1777326843 | 14.44° C | 73% | 1017.6 hPa | 0 mm | - | 0 W/m² | - |
| 1777326304 | 14.44° C | 73% | 1017.7 hPa | 0 mm | - | 0 W/m² | - |
| 1777325764 | 14.44° C | 73% | 1017.7 hPa | 0 mm | - | 0 W/m² | - |
| 1777325223 | 15° C | 70% | 1017.8 hPa | 0 mm | - | 0 W/m² | - |
| 1777324684 | 15° C | 66% | 1017.7 hPa | 0 mm | - | 0 W/m² | - |
| 1777324144 | 15.56° C | 68% | 1017.9 hPa | 0 mm | - | 0 W/m² | - |
| 1777323603 | 15.56° C | 69% | 1017.6 hPa | 0 mm | - | 0 W/m² | - |
| 1777323243 | 15.56° C | 70% | 1017.6 hPa | 0 mm | - | 0 W/m² | - |
| 1777322703 | 15.56° C | 70% | 1017.7 hPa | 0 mm | - | 0 W/m² | - |
| 1777322163 | 16.11° C | 68% | 1017.8 hPa | 0 mm | - | 0 W/m² | - |
| 1777321624 | 16.11° C | 68% | 1017.6 hPa | 0 mm | - | 0 W/m² | - |
| 1777321084 | 16.11° C | 67% | 1017.5 hPa | 0 mm | - | 0 W/m² | - |
| 1777320544 | 16.67° C | 68% | 1017.5 hPa | 0 mm | - | 0 W/m² | - |
| 1777320003 | 16.67° C | 67% | 1017.6 hPa | 0 mm | - | 0 W/m² | - |
| 1777319643 | 17.22° C | 65% | 1017.6 hPa | 0 mm | - | 0 W/m² | - |
| 1777319104 | 17.22° C | 63% | 1017.7 hPa | 0 mm | - | 0 W/m² | - |
| 1777318564 | 17.22° C | 63% | 1017.4 hPa | 0 mm | - | 0 W/m² | - |
| 1777318024 | 17.78° C | 63% | 1017.2 hPa | 0 mm | - | 0 W/m² | - |
| 1777317484 | 17.78° C | 63% | 1017.3 hPa | 0 mm | - | 0 W/m² | - |
| 1777316944 | 17.78° C | 65% | 1017.1 hPa | 0 mm | - | 0 W/m² | - |
| 1777316404 | 17.78° C | 64% | 1017.1 hPa | 0 mm | - | 0 W/m² | - |
| 1777316043 | 17.78° C | 64% | 1017.1 hPa | 0 mm | - | 0 W/m² | - |
| 1777315504 | 18.33° C | 62% | 1017.1 hPa | 0 mm | - | 1 W/m² | - |
* Rain latest hour (hover to see other rain measurements)
** Current wind speed in m/s (hover to see current wind gust speed)